Location: Tamazert
(32.6352°N, 5.2072°W)
Time: 07:17:22
(UTC+00:00)

Tiros 1 despin weight - Pass Details

Date: 09 October 2022
Orbit: 590 x 637 km, 48.2° (Epoch: 28 November)

Event Time Altitude Azimuth Distance (km) Brightness Sun altitude
Rises 14:59:22 0° 280° (W) 2,823 ? 33.6°
Reaches altitude 10° 15:02:25 10° 303° (WNW) 1,931 ? 33.1°
Maximum altitude 15:05:11 16° 342° (NNW) 1,581 ? 32.6°
Drops below altitude 10° 15:07:59 10° 20° (NNE) 1,950 ? 32.1°
Sets 15:11:06 0° 43° (NE) 2,866 ? 31.6°
